N4PWG Weather Reports


time (UTC)temp
F
wind
direction
speed
knots
gust
knots
rain 1hr
in
rain 24hr
in
rain mn
in
humidity
%
barometer
mb
20260906162600 95 26 0.0 0.0 0.00 0.00 0.00 63 1030.6
20260906162055 95 33 0.0 0.0 0.00 0.00 0.00 63 1030.7
20260906161550 94 77 0.9 0.9 0.00 0.00 0.00 64 1030.7
20260906161048 94 125 0.0 0.0 0.00 0.00 0.00 64 1030.7
20260906160547 93 1 0.0 0.9 0.00 0.00 0.00 66 1031.1
20260906160046 92 22 0.0 0.0 0.00 0.00 0.00 68 1030.7
20260906155544 94 37 0.0 0.0 0.00 0.00 0.00 67 1030.8
20260906155040 94 310 0.0 0.0 0.00 0.00 0.00 66 1030.9
20260906154535 93 53 0.0 0.9 0.00 0.00 0.00 67 1031.0
20260906154034 93 27 0.0 0.0 0.00 0.00 0.00 67 1030.8
20260906153533 91 230 0.0 0.0 0.00 0.00 0.00 71 1030.6
20260906153023 91 335 0.0 0.0 0.00 0.00 0.00 71 1030.8
20260906152522 91 34 0.0 0.0 0.00 0.00 0.00 69 1030.6
20260906152022 90 185 0.0 0.0 0.00 0.00 0.00 70 1030.6
20260906151517 89 51 0.0 0.0 0.00 0.00 0.00 72 1030.6
20260906151013 89 49 0.0 0.0 0.00 0.00 0.00 74 1030.5
20260906150508 89 53 0.0 0.0 0.00 0.00 0.00 75 1030.6
20260906150008 88 61 0.0 0.0 0.00 0.00 0.00 74 1030.4
20260906145502 88 55 0.0 0.0 0.00 0.00 0.00 73 1030.5
20260906145001 89 10 0.0 0.0 0.00 0.00 0.00 73 1030.4
20260906144456 89 43 0.0 0.9 0.00 0.00 0.00 75 1030.6
20260906143951 88 135 0.0 0.0 0.00 0.00 0.00 76 1030.6
20260906143447 88 153 0.0 0.9 0.00 0.00 0.00 75 1030.8
20260906142943 88 38 0.0 0.0 0.00 0.00 0.00 76 1030.6
20260906142436 87 50 0.0 0.0 0.00 0.00 0.00 77 1030.8
20260906141932 87 211 0.0 0.0 0.00 0.00 0.00 78 1030.8
20260906141426 86 135 0.0 0.0 0.00 0.00 0.00 80 1030.7
20260906140926 85 56 0.0 0.9 0.00 0.00 0.00 81 1030.5
20260906140420 85 67 0.0 0.0 0.00 0.00 0.00 80 1030.6
20260906135919 85 46 0.0 0.0 0.00 0.00 0.00 81 1030.6
20260906135418 85 49 0.0 0.0 0.00 0.00 0.00 81 1030.6
20260906134914 84 67 0.0 0.0 0.00 0.00 0.00 82 1030.6
20260906134409 84 110 0.0 0.0 0.00 0.00 0.00 83 1030.6
20260906133903 83 58 0.0 0.0 0.00 0.00 0.00 84 1030.8
20260906133359 83 60 0.0 0.0 0.00 0.00 0.00 84 1030.8
20260906132855 82 64 0.0 0.0 0.00 0.00 0.00 86 1030.9
20260906132350 82 56 0.0 0.0 0.00 0.00 0.00 88 1030.9
20260906131845 81 12 0.0 0.0 0.00 0.00 0.00 90 1030.9
20260906131341 80 68 0.0 0.0 0.00 0.00 0.00 93 1030.7
20260906130836 79 56 0.0 0.0 0.00 0.00 0.00 94 1030.7
20260906130336 78 39 0.0 0.0 0.00 0.00 0.00 96 1030.8
20260906125835 77 29 0.0 0.0 0.00 0.00 0.00 98 1030.8
20260906125332 77 50 0.0 0.0 0.00 0.00 0.00 99 1030.8
20260906124827 76 43 0.0 0.0 0.00 0.00 0.00 99 1030.7
20260906124323 76 36 0.0 0.0 0.00 0.00 0.00 99 1030.9
20260906123822 76 31 0.0 0.0 0.00 0.00 0.00 99 1030.8
20260906123317 75 22 0.0 0.0 0.00 0.00 0.00 99 1030.7
20260906122817 75 19 0.0 0.0 0.00 0.00 0.00 99 1030.7
20260906122312 75 307 0.0 0.0 0.00 0.00 0.00 99 1030.6
20260906121809 75 6 0.0 0.0 0.00 0.00 0.00 99 1030.5
20260906121305 74 11 0.0 0.0 0.00 0.00 0.00 99 1030.4
20260906120801 74 13 0.0 0.0 0.00 0.00 0.00 99 1030.5
20260906120257 74 21 0.0 0.0 0.00 0.00 0.00 99 1030.3
20260906115753 73 13 0.0 0.0 0.00 0.00 0.00 99 1030.3
20260906115248 73 17 0.0 0.0 0.00 0.00 0.00 99 1030.0
20260906114747 73 61 0.0 0.0 0.00 0.00 0.00 99 1030.0
20260906114243 73 3 0.0 0.0 0.00 0.00 0.00 99 1029.9
20260906113738 73 325 0.0 0.0 0.00 0.00 0.00 99 1029.6
20260906113237 73 326 0.0 0.0 0.00 0.00 0.00 99 1029.4
20260906112736 73 11 0.0 0.0 0.00 0.00 0.00 99 1029.4
20260906112233 73 24 0.0 0.0 0.00 0.00 0.00 99 1029.2
20260906111732 73 23 0.0 0.0 0.00 0.00 0.00 99 1029.5
20260906111227 73 31 0.0 0.0 0.00 0.00 0.00 99 1029.3
20260906110722 73 18 0.0 0.0 0.00 0.00 0.00 99 1029.1
20260906110218 73 30 0.0 0.0 0.00 0.00 0.00 99 1028.9
20260906105711 73 16 0.0 0.0 0.00 0.00 0.00 99 1029.1
20260906105208 73 18 0.0 0.0 0.00 0.00 0.00 99 1029.2
20260906104707 73 11 0.0 0.0 0.00 0.00 0.00 99 1028.9
20260906104207 73 19 0.0 0.0 0.00 0.00 0.00 99 1029.0
20260906103704 73 11 0.0 0.0 0.00 0.00 0.00 99 1028.8
20260906103159 73 16 0.0 0.0 0.00 0.00 0.00 99 1028.9
20260906102655 74 16 0.0 0.0 0.00 0.00 0.00 99 1028.9
20260906102154 74 3 0.0 0.0 0.00 0.00 0.00 99 1029.1
20260906101653 73 12 0.0 0.0 0.00 0.00 0.00 99 1028.9
20260906101148 73 356 0.0 0.0 0.00 0.00 0.00 99 1028.8
20260906100645 73 6 0.0 0.0 0.00 0.00 0.00 99 1028.7
20260906100144 73 12 0.0 0.0 0.00 0.00 0.00 99 1028.7
20260906095639 73 9 0.0 0.0 0.00 0.00 0.00 99 1028.7
20260906095135 74 12 0.0 0.0 0.00 0.00 0.00 99 1028.9
20260906094634 74 23 0.0 0.0 0.00 0.00 0.00 99 1028.7
20260906094130 74 41 0.0 0.0 0.00 0.00 0.00 99 1028.8
20260906093626 74 22 0.0 0.0 0.00 0.00 0.00 99 1028.9
20260906093125 74 19 0.0 0.0 0.00 0.00 0.00 99 1028.7
20260906092620 74 7 0.0 0.0 0.00 0.00 0.00 99 1028.9
20260906092116 74 5 0.0 0.0 0.00 0.00 0.00 99 1028.8
20260906091612 75 5 0.0 0.0 0.00 0.00 0.00 99 1028.6
20260906091109 75 3 0.0 0.0 0.00 0.00 0.00 99 1028.7
20260906090608 75 25 0.0 0.0 0.00 0.00 0.00 99 1028.7
20260906090103 75 17 0.0 0.0 0.00 0.00 0.00 99 1028.7
20260906085602 75 14 0.0 0.0 0.00 0.00 0.00 99 1028.8
20260906085102 75 6 0.0 0.0 0.00 0.00 0.00 99 1028.7
20260906084557 74 17 0.0 0.0 0.00 0.00 0.00 99 1028.6
20260906084055 75 17 0.0 0.0 0.00 0.00 0.00 99 1028.5
20260906083551 74 12 0.0 0.0 0.00 0.00 0.00 99 1028.7
20260906083051 74 46 0.0 0.0 0.00 0.00 0.00 99 1028.5
20260906082546 74 1 0.9 0.9 0.00 0.00 0.00 99 1028.6
20260906082042 74 12 0.0 0.0 0.00 0.00 0.00 99 1028.7
20260906081538 74 14 0.0 0.0 0.00 0.00 0.00 99 1028.8
20260906081033 75 26 0.0 0.0 0.00 0.00 0.00 99 1028.6
20260906080529 75 26 0.0 0.0 0.00 0.00 0.00 99 1028.6
20260906080026 75 17 0.0 0.0 0.00 0.00 0.00 99 1028.6
20260906075525 75 28 0.0 0.0 0.00 0.00 0.00 99 1028.5
20260906075020 75 26 0.0 0.0 0.00 0.00 0.00 99 1028.8
20260906074515 75 25 0.0 0.0 0.00 0.00 0.00 99 1028.7
20260906074013 75 34 0.0 0.0 0.00 0.00 0.00 99 1028.5
20260906073508 75 17 0.0 0.0 0.00 0.00 0.00 99 1028.3
20260906073004 75 18 0.0 0.0 0.00 0.00 0.00 99 1028.4
20260906072459 75 23 0.0 0.0 0.00 0.00 0.00 99 1028.3
20260906071955 76 18 0.0 0.0 0.00 0.00 0.00 99 1028.2
20260906071451 76 12 0.0 0.0 0.00 0.00 0.00 99 1028.4
20260906070946 76 15 0.0 0.0 0.00 0.00 0.00 99 1028.3
20260906070442 76 15 0.0 0.0 0.00 0.00 0.00 99 1028.5
20260906065938 76 4 0.0 0.0 0.00 0.00 0.00 99 1028.4
20260906065432 76 24 0.0 0.0 0.00 0.00 0.00 99 1028.5
20260906064928 76 17 0.0 0.0 0.00 0.00 0.00 99 1028.5
20260906064424 76 12 0.0 0.0 0.00 0.00 0.00 99 1028.7
20260906063924 76 12 0.0 0.0 0.00 0.00 0.00 99 1028.7
20260906063419 76 5 0.0 0.0 0.00 0.00 0.00 99 1028.7
20260906062914 76 11 0.0 0.0 0.00 0.00 0.00 99 1028.6
20260906062414 76 5 0.0 0.0 0.00 0.00 0.00 99 1028.7
20260906061910 76 11 0.0 0.0 0.00 0.00 0.00 99 1028.7
20260906061406 77 11 0.0 0.0 0.00 0.00 0.00 99 1028.9
20260906060900 77 12 0.0 0.0 0.00 0.00 0.00 99 1028.8
20260906060358 77 18 0.0 0.0 0.00 0.00 0.00 99 1029.1
20260906055853 77 0 0.0 0.0 0.00 0.00 0.00 99 1028.8
20260906055349 76 8 0.0 0.0 0.00 0.00 0.00 99 1028.9
20260906054844 77 31 0.0 0.0 0.00 0.00 0.00 99 1029.0
20260906054338 77 5 0.0 0.0 0.00 0.00 0.00 99 1029.1
20260906053835 77 28 0.0 0.0 0.00 0.00 0.00 99 1029.1
20260906053331 77 10 0.0 0.0 0.00 0.00 0.00 99 1028.9
20260906052826 77 26 0.0 0.0 0.00 0.00 0.00 99 1029.0
20260906052322 77 8 0.0 0.0 0.00 0.00 0.00 99 1028.9
20260906051819 77 14 0.0 0.0 0.00 0.00 0.00 99 1028.8
20260906051318 77 15 0.0 0.0 0.00 0.00 0.00 99 1029.1
20260906050814 77 339 0.0 0.0 0.00 0.00 0.00 99 1029.2
20260906050309 77 14 0.0 0.0 0.00 0.00 0.00 99 1028.9
20260906045808 77 12 0.0 0.0 0.00 0.00 0.00 99 1029.0
20260906045305 77 24 0.0 0.0 0.00 0.00 0.00 99 1028.7
20260906044759 77 9 0.0 0.0 0.00 0.00 0.00 99 1028.9
20260906044253 77 9 0.0 0.0 0.00 0.00 0.00 99 1029.0
20260906043749 78 16 0.0 0.0 0.00 0.00 0.00 99 1028.8
20260906043245 78 9 0.0 0.0 0.00 0.00 0.00 99 1029.0
20260906042744 78 12 0.0 0.0 0.00 0.00 0.00 99 1028.8
20260906042244 78 358 0.0 0.0 0.00 0.00 0.00 99 1029.0
20260906041739 78 23 0.0 0.0 0.00 0.00 0.00 99 1028.9
20260906041234 78 19 0.0 0.0 0.00 0.00 0.00 99 1028.8
20260906040730 78 14 0.0 0.0 0.00 0.00 0.00 99 1029.1
20260906040225 78 32 0.0 0.0 0.00 0.00 0.00 99 1028.9
20260906035721 78 22 0.0 0.0 0.00 0.00 0.00 99 1028.8
20260906035216 78 29 0.0 0.0 0.00 0.00 0.00 99 1028.7
20260906034716 78 31 0.0 0.0 0.00 0.00 0.00 99 1028.8
20260906034211 78 18 0.0 0.0 0.00 0.00 0.00 99 1028.7
20260906033707 78 19 0.0 0.0 0.00 0.00 0.00 99 1028.6
20260906033201 78 16 0.0 0.0 0.00 0.00 0.00 99 1028.9
20260906032658 78 17 0.0 0.0 0.00 0.00 0.00 99 1028.9
20260906032158 78 27 0.0 0.0 0.00 0.00 0.00 98 1028.6
20260906031653 78 25 0.0 0.0 0.00 0.00 0.00 98 1028.6
20260906031148 78 25 0.0 0.0 0.00 0.00 0.00 98 1028.6
20260906030647 79 16 0.0 0.0 0.00 0.00 0.00 97 1028.8
20260906030143 79 22 0.0 0.0 0.00 0.00 0.00 97 1028.6
20260906025642 80 26 0.0 0.0 0.00 0.00 0.00 97 1028.6
20260906025142 80 26 0.0 0.0 0.00 0.00 0.00 97 1028.6
20260906024637 80 47 0.0 0.0 0.00 0.00 0.00 97 1028.5
20260906024136 80 19 0.0 0.0 0.00 0.00 0.00 96 1028.5
20260906023632 80 5 0.0 0.0 0.00 0.00 0.00 96 1028.4
20260906023133 80 5 0.0 0.0 0.00 0.00 0.00 96 1028.4
20260906022633 80 15 0.0 0.0 0.00 0.00 0.00 96 1028.3
20260906022129 80 5 0.0 0.0 0.00 0.00 0.00 95 1028.5
20260906021624 80 18 0.0 0.0 0.00 0.00 0.00 94 1028.2
20260906021123 80 26 0.0 0.0 0.00 0.00 0.00 94 1028.3
20260906020623 80 23 0.0 0.0 0.00 0.00 0.00 94 1028.1
20260906020118 81 24 0.0 0.0 0.00 0.00 0.00 94 1027.9
20260906015612 81 23 0.0 0.0 0.00 0.00 0.00 93 1028.1
20260906015111 81 26 0.0 0.0 0.00 0.00 0.00 93 1027.9
20260906014606 81 26 0.0 0.0 0.00 0.00 0.00 92 1027.9
20260906014102 81 22 0.0 0.0 0.00 0.00 0.00 92 1028.0
20260906013557 82 28 0.0 0.0 0.00 0.00 0.00 92 1027.7
20260906013052 82 25 0.0 0.0 0.00 0.00 0.00 92 1027.7
20260906012547 82 26 0.0 0.0 0.00 0.00 0.00 92 1027.7
20260906012047 82 33 0.0 0.0 0.00 0.00 0.00 91 1027.7
20260906011543 82 58 0.0 0.0 0.00 0.00 0.00 91 1027.6
20260906011042 83 38 0.0 0.0 0.00 0.00 0.00 90 1027.5
20260906010538 84 35 0.0 0.0 0.00 0.00 0.00 89 1027.6
20260906010034 84 86 0.0 0.0 0.00 0.00 0.00 88 1027.9
20260906005533 84 23 0.0 0.0 0.00 0.00 0.00 86 1027.6
20260906005033 85 23 0.0 0.0 0.00 0.00 0.00 85 1027.4
20260906004532 85 34 0.0 0.0 0.00 0.00 0.00 85 1027.4
20260906004027 86 48 0.0 0.0 0.00 0.00 0.00 85 1027.3
20260906003523 86 44 0.0 0.0 0.00 0.00 0.00 84 1027.2
20260906003019 87 47 0.0 0.0 0.00 0.00 0.00 83 1027.3
20260906002519 88 58 0.0 0.0 0.00 0.00 0.00 81 1027.5
20260906002014 89 48 0.0 0.0 0.00 0.00 0.00 80 1027.2
20260906001509 90 62 0.0 0.0 0.00 0.00 0.00 78 1027.4
20260906001004 90 73 0.0 0.0 0.00 0.00 0.00 76 1027.5
20260906000500 91 52 0.0 0.0 0.00 0.00 0.00 74 1027.6
20260905235954 92 57 0.0 0.0 0.00 0.00 0.00 70 1027.5
20260905235454 93 56 0.0 0.0 0.00 0.00 0.00 67 1027.7
20260905234948 95 45 0.0 0.0 0.00 0.00 0.00 63 1027.6
20260905234439 96 45 0.0 0.0 0.00 0.00 0.00 60 1027.7
20260905233938 96 21 0.0 0.9 0.00 0.00 0.00 59 1027.7
20260905233434 96 37 0.0 0.0 0.00 0.00 0.00 58 1027.6
20260905232932 97 35 0.0 0.9 0.00 0.00 0.00 58 1027.9
20260905232429 97 32 0.0 0.0 0.00 0.00 0.00 57 1027.5
20260905231924 98 57 0.0 0.0 0.00 0.00 0.00 56 1027.6
20260905231420 98 31 1.7 2.6 0.00 0.00 0.00 55 1027.8
20260905230916 99 69 0.0 0.0 0.00 0.00 0.00 52 1027.6
20260905230415 100 40 0.9 1.7 0.00 0.00 0.00 52 1027.5
20260905225913 100 59 0.9 0.9 0.00 0.00 0.00 51 1027.5
20260905225409 100 37 0.9 0.9 0.00 0.00 0.00 51 1027.6
20260905224903 101 37 0.0 0.9 0.00 0.00 0.00 50 1027.4
20260905224359 100 43 0.0 0.0 0.00 0.00 0.00 51 1027.5
20260905223853 100 33 0.9 1.7 0.00 0.00 0.00 50 1027.5
20260905223352 100 27 1.7 1.7 0.00 0.00 0.00 50 1027.7
20260905222851 100 35 0.9 1.7 0.00 0.00 0.00 50 1027.7
20260905222350 101 53 1.7 1.7 0.00 0.00 0.00 49 1027.8
20260905221846 101 21 0.0 0.0 0.00 0.00 0.00 50 1027.5
20260905221343 101 35 0.0 0.9 0.00 0.00 0.00 50 1027.7
20260905220839 101 35 0.0 0.0 0.00 0.00 0.00 48 1027.7
20260905220335 100 65 0.0 0.0 0.00 0.00 0.00 48 1027.5
20260905215834 101 96 0.0 0.0 0.00 0.00 0.00 50 1027.7
20260905215330 102 8 1.7 1.7 0.00 0.00 0.00 47 1027.7
20260905214826 102 357 0.0 0.0 0.00 0.00 0.00 47 1027.5
20260905214321 102 22 1.7 2.6 0.00 0.00 0.00 48 1027.6
20260905213816 102 42 0.0 0.0 0.00 0.00 0.00 48 1027.7
20260905213312 102 353 0.9 1.7 0.00 0.00 0.00 48 1027.7
20260905212813 101 0 0.9 1.7 0.00 0.00 0.00 49 1027.7
20260905212313 101 40 0.9 0.9 0.00 0.00 0.00 49 1027.7
20260905211813 102 10 0.9 0.9 0.00 0.00 0.00 48 1027.7
20260905211308 102 75 0.0 0.0 0.00 0.00 0.00 50 1027.8
20260905210804 101 60 0.9 1.7 0.00 0.00 0.00 48 1027.9
20260905210304 102 2 0.0 0.9 0.00 0.00 0.00 50 1027.9
20260905205803 101 42 0.0 0.0 0.00 0.00 0.00 48 1028.1
20260905205258 101 54 2.6 2.6 0.00 0.00 0.00 48 1028.0
20260905204757 101 31 1.7 2.6 0.00 0.00 0.00 46 1028.0
20260905204253 101 28 1.7 2.6 0.00 0.00 0.00 47 1028.0
20260905203752 101 64 0.0 0.0 0.00 0.00 0.00 49 1028.1
20260905203248 101 17 0.0 0.0 0.00 0.00 0.00 50 1028.4
20260905202743 101 23 1.7 2.6 0.00 0.00 0.00 47 1028.3
20260905202238 101 14 0.0 0.0 0.00 0.00 0.00 48 1028.4
20260905201734 102 34 0.0 0.9 0.00 0.00 0.00 49 1028.4
20260905201229 103 301 0.0 0.0 0.00 0.00 0.00 47 1028.2
20260905200723 101 13 0.9 0.9 0.00 0.00 0.00 47 1028.5
20260905200219 101 29 0.9 0.9 0.00 0.00 0.00 48 1028.6
20260905195717 102 280 0.9 0.9 0.00 0.00 0.00 48 1028.7
20260905195212 101 345 1.7 4.3 0.00 0.00 0.00 49 1028.9
20260905194708 102 23 0.0 0.0 0.00 0.00 0.00 46 1029.0
20260905194207 101 321 0.0 0.0 0.00 0.00 0.00 52 1029.0
20260905193701 100 85 0.0 0.0 0.00 0.00 0.00 53 1029.1
20260905193157 101 269 0.0 0.9 0.00 0.00 0.00 48 1029.2
20260905192652 101 25 4.3 5.2 0.00 0.00 0.00 48 1029.3
20260905192149 102 85 1.7 2.6 0.00 0.00 0.00 48 1029.4
20260905191648 100 12 0.9 1.7 0.00 0.00 0.00 47 1029.4
20260905191146 100 45 0.0 0.0 0.00 0.00 0.00 51 1029.4
20260905190645 100 207 0.9 1.7 0.00 0.00 0.00 54 1029.7
20260905190144 100 51 0.0 0.0 0.00 0.00 0.00 51 1029.7
20260905185643 101 210 0.0 0.0 0.00 0.00 0.00 48 1029.9
20260905185138 101 243 0.0 0.9 0.00 0.00 0.00 48 1029.9
20260905184637 101 129 0.9 1.7 0.00 0.00 0.00 53 1029.9
20260905184137 100 71 0.0 0.9 0.00 0.00 0.00 50 1029.8
20260905183636 101 21 0.0 0.0 0.00 0.00 0.00 51 1029.7
20260905183131 100 25 0.0 0.0 0.00 0.00 0.00 49 1029.9
20260905182631 100 233 0.0 0.9 0.00 0.00 0.00 51 1030.3
20260905182131 100 54 0.0 0.9 0.00 0.00 0.00 50 1029.9
20260905181626 100 128 0.9 1.7 0.00 0.00 0.00 50 1030.0
20260905181125 100 219 0.9 0.9 0.00 0.00 0.00 53 1029.9
20260905180620 99 44 0.0 0.0 0.00 0.00 0.00 53 1030.0
20260905180115 98 66 0.0 0.9 0.00 0.00 0.00 53 1030.3
20260905175614 97 21 0.9 1.7 0.00 0.00 0.00 54 1030.5
20260905175109 97 33 0.9 1.7 0.00 0.00 0.00 56 1030.4
20260905174605 97 77 0.0 0.0 0.00 0.00 0.00 56 1030.4
20260905174100 96 44 0.0 0.0 0.00 0.00 0.00 59 1030.4
20260905173557 97 48 0.0 0.0 0.00 0.00 0.00 62 1030.4
20260905173052 98 64 0.0 0.0 0.00 0.00 0.00 58 1030.6
20260905172550 98 36 0.9 1.7 0.00 0.00 0.00 54 1030.4
20260905172046 99 341 0.0 0.0 0.00 0.00 0.00 58 1030.5
20260905171543 98 60 0.0 0.0 0.00 0.00 0.00 55 1030.8
20260905171038 100 59 0.0 0.0 0.00 0.00 0.00 53 1030.7
20260905170535 100 302 0.0 0.0 0.00 0.00 0.00 53 1030.8
20260905170029 98 286 0.0 0.0 0.00 0.00 0.00 53 1030.9
20260905165524 98 182 0.9 0.9 0.00 0.00 0.00 54 1030.8
20260905165014 98 244 0.9 1.7 0.00 0.00 0.00 53 1030.9
20260905164514 98 271 0.0 0.0 0.00 0.00 0.00 57 1031.0
20260905164008 98 51 0.0 0.0 0.00 0.00 0.00 58 1031.2
20260905163505 98 235 0.0 0.0 0.00 0.00 0.00 56 1031.2
20260905163000 98 195 0.9 1.7 0.00 0.00 0.00 55 1031.1